Total_Precipitation_Accumulation
0.98 1.22 1.77 2.52 3.27 2.68 2.01 1.71 1.36 1.17 0.98 0.87 0.77 0.77 0.90 1.09 1.58 2.30 2.52 2.25 1.62 1.44 1.78 2.38 2.50 2.32 2.08 1.81 1.79 1.91 1.91 2.06 1.95 1.72 1.53 1.32 1.18 1.08 1.10 1.09 1.08 0.99 0.87 0.90 0.96 0.92 0.89 0.89 0.80
0.96 1.74 2.33 3.25 3.23 2.22 1.95 1.76 1.48 1.05 0.79 0.62 0.52 0.67 0.82 0.77 0.95 1.72 2.52 2.41 1.58 1.31 1.55 1.94 2.21 2.18 2.00 1.84 1.84 1.91 1.87 1.81 1.72 1.48 1.28 1.20 1.18 1.10 1.06 1.11 1.13 0.97 0.86 0.85 0.87 0.95 0.90 0.83 0.73
1.09 1.95 2.58 2.98 2.32 1.92 1.90 1.71 1.33 0.90 0.68 0.56 0.47 0.51 0.73 1.01 1.24 1.96 2.28 1.68 1.31 1.13 1.47 1.94 2.20 2.06 1.91 1.76 1.78 1.80 1.84 1.75 1.61 1.50 1.33 1.22 1.19 1.15 1.16 1.18 1.13 0.95 0.82 0.74 0.83 0.90 0.85 0.77 0.66
1.45 2.26 2.56 2.30 1.82 1.44 1.37 1.38 1.02 0.82 0.58 0.43 0.42 0.58 0.78 1.20 1.45 1.82 1.82 1.37 1.18 1.14 1.43 1.69 1.90 1.76 1.63 1.64 1.66 1.54 1.39 1.38 1.54 1.55 1.41 1.29 1.17 1.10 1.11 1.11 0.98 0.80 0.73 0.72 0.77 0.82 0.78 0.73 0.63
1.79 2.45 2.49 1.97 1.61 1.37 1.16 1.02 0.82 0.73 0.64 0.51 0.44 0.79 1.21 1.48 1.58 1.59 1.55 1.28 1.21 1.41 1.66 1.60 1.72 1.61 1.51 1.48 1.45 1.34 1.31 1.39 1.59 1.55 1.44 1.34 1.17 1.06 1.06 0.98 0.81 0.65 0.64 0.69 0.84 0.87 0.70 0.65 0.62
2.24 2.43 2.71 2.10 1.67 1.40 1.27 0.97 0.75 0.64 0.58 0.48 0.49 0.81 1.37 1.68 1.68 1.64 1.57 1.42 1.34 1.38 1.52 1.51 1.66 1.58 1.41 1.29 1.26 1.15 1.22 1.47 1.62 1.56 1.51 1.51 1.25 1.04 0.94 0.86 0.76 0.64 0.60 0.67 0.80 0.83 0.69 0.64 0.69
2.38 2.50 2.28 1.78 1.64 1.73 1.35 0.85 0.73 0.69 0.67 0.52 0.43 0.78 1.39 1.77 1.53 1.33 1.33 1.23 1.22 1.23 1.27 1.21 1.25 1.31 1.24 1.19 1.25 1.23 1.33 1.47 1.53 1.44 1.39 1.36 1.06 0.84 0.77 0.76 0.75 0.71 0.72 0.76 0.79 0.82 0.77 0.74 0.77
1.65 1.81 1.78 1.67 1.70 1.69 1.15 0.72 0.61 0.56 0.62 0.42 0.38 0.69 1.25 1.45 1.23 1.23 1.18 1.17 1.17 1.14 1.10 0.97 1.00 1.17 1.27 1.22 1.26 1.36 1.42 1.42 1.49 1.35 1.27 1.15 0.86 0.70 0.70 0.66 0.67 0.65 0.70 0.78 0.82 0.84 0.80 0.77 0.77
1.52 1.79 2.01 1.89 1.63 1.44 1.03 0.80 0.58 0.42 0.45 0.39 0.34 0.41 0.61 0.83 0.95 1.09 1.15 1.12 1.25 1.12 1.00 0.92 0.83 0.88 1.06 1.18 1.17 1.39 1.47 1.44 1.33 1.25 1.23 1.04 0.70 0.60 0.61 0.61 0.76 0.75 0.80 0.86 0.88 0.85 0.78 0.72 0.66
1.50 1.86 1.92 1.42 1.09 1.04 0.95 0.82 0.65 0.60 0.62 0.52 0.45 0.44 0.49 0.66 0.83 0.90 0.96 1.01 1.08 1.06 0.89 0.82 0.74 0.69 0.69 0.77 1.06 1.44 1.30 1.23 1.01 0.98 0.96 0.92 0.83 0.77 0.61 0.68 0.89 0.91 0.92 0.91 0.90 0.85 0.70 0.56 0.49
1.24 1.33 1.24 1.16 0.84 0.71 0.85 0.80 0.61 0.64 0.74 0.55 0.52 0.49 0.50 0.61 0.66 0.70 0.79 0.85 0.86 0.92 0.85 0.74 0.67 0.60 0.59 0.72 0.84 1.06 1.14 1.14 1.00 0.85 0.83 0.90 0.85 0.75 0.63 0.58 0.66 0.77 0.85 0.77 0.74 0.72 0.56 0.51 0.54
1.09 1.01 0.88 0.84 0.67 0.68 0.87 0.74 0.62 0.69 0.66 0.42 0.35 0.39 0.50 0.58 0.56 0.56 0.66 0.81 0.86 0.89 0.87 0.80 0.69 0.64 0.61 0.60 0.60 0.69 0.75 0.79 0.79 0.71 0.71 0.83 0.78 0.73 0.70 0.70 0.66 0.68 0.72 0.79 0.76 0.72 0.63 0.59 0.61
1.01 0.94 0.76 0.63 0.66 0.69 0.76 0.79 0.68 0.67 0.55 0.44 0.37 0.47 0.54 0.53 0.51 0.53 0.61 0.72 0.78 0.82 0.87 0.85 0.74 0.67 0.61 0.58 0.55 0.53 0.62 0.67 0.69 0.72 0.68 0.70 0.74 0.73 0.70 0.67 0.73 0.75 0.73 0.78 0.77 0.68 0.64 0.63 0.60
0.94 0.88 0.80 0.67 0.67 0.71 0.76 0.80 0.75 0.80 0.62 0.51 0.43 0.48 0.51 0.52 0.52 0.55 0.58 0.67 0.71 0.72 0.85 0.89 0.81 0.76 0.69 0.62 0.58 0.57 0.63 0.70 0.69 0.62 0.57 0.61 0.63 0.65 0.74 0.78 0.80 0.81 0.81 0.88 0.88 0.69 0.69 0.74 0.70
0.83 0.89 0.88 0.80 0.79 0.77 0.80 0.99 0.91 0.83 0.71 0.68 0.56 0.47 0.49 0.48 0.48 0.53 0.54 0.60 0.67 0.75 0.87 0.87 0.84 0.93 0.84 0.74 0.71 0.64 0.68 0.73 0.74 0.73 0.69 0.71 0.70 0.71 0.80 0.88 0.90 0.89 0.86 0.89 1.13 1.01 0.78 0.75 0.74
0.96 1.06 1.22 0.87 0.78 0.82 0.95 1.14 0.86 0.84 0.82 0.87 0.70 0.58 0.53 0.50 0.47 0.47 0.48 0.58 0.63 0.78 0.86 0.96 0.86 0.95 0.93 0.88 0.87 0.80 0.80 0.85 0.85 0.84 0.86 0.81 0.80 0.82 0.91 0.97 0.87 0.93 1.01 1.04 1.20 1.27 0.98 0.80 0.80
1.12 1.20 1.18 0.93 0.71 0.74 0.84 0.94 0.78 0.74 0.72 0.74 0.69 0.62 0.60 0.48 0.44 0.42 0.43 0.49 0.57 0.73 0.82 0.96 0.99 0.97 1.02 1.04 1.06 1.00 0.96 0.97 0.94 0.93 0.88 0.89 0.92 0.99 1.06 1.07 1.01 1.01 1.03 1.13 1.13 1.35 1.32 1.13 1.03
1.07 0.95 0.90 0.82 0.71 0.72 0.73 0.64 0.63 0.62 0.64 0.61 0.61 0.57 0.52 0.45 0.43 0.41 0.38 0.40 0.47 0.64 0.77 0.89 1.04 1.16 1.23 1.26 1.31 1.29 1.20 1.11 1.13 1.15 1.11 1.12 1.18 1.15 1.21 1.23 1.24 1.32 1.30 1.29 1.22 1.41 1.52 1.34 1.31
0.74 0.73 0.74 0.63 0.57 0.60 0.55 0.49 0.53 0.56 0.59 0.53 0.54 0.53 0.44 0.39 0.41 0.39 0.34 0.37 0.40 0.51 0.63 0.79 1.15 1.58 1.77 1.66 1.64 1.67 1.74 1.71 1.61 1.57 1.54 1.58 1.58 1.58 1.63 1.60 1.58 1.54 1.50 1.56 1.55 1.80 2.14 1.69 1.47
0.69 0.74 0.76 0.66 0.48 0.48 0.48 0.42 0.43 0.49 0.50 0.46 0.43 0.46 0.41 0.36 0.32 0.30 0.27 0.31 0.35 0.53 0.68 0.80 1.09 1.54 1.74 1.85 1.97 2.18 2.34 2.21 2.06 2.04 1.98 2.06 2.07 2.22 2.19 2.17 2.16 2.07 2.07 2.05 1.97 2.08 2.38 2.02 1.78
0.68 0.71 0.70 0.64 0.49 0.44 0.43 0.45 0.40 0.45 0.40 0.38 0.38 0.39 0.35 0.28 0.26 0.27 0.26 0.30 0.34 0.47 0.60 0.73 0.94 1.24 1.58 1.84 2.11 2.39 2.61 2.57 2.44 2.27 2.25 2.31 2.36 2.51 2.64 2.63 2.68 2.50 2.37 2.40 2.32 2.28 2.44 2.50 2.21
0.70 0.48 0.44 0.44 0.58 0.59 0.44 0.66 0.47 0.46 0.42 0.38 0.38 0.37 0.36 0.30 0.29 0.32 0.29 0.32 0.36 0.43 0.53 0.69 0.90 1.13 1.37 1.60 2.01 2.44 2.72 2.80 2.70 2.60 2.57 2.52 2.52 2.58 2.79 2.82 2.93 2.76 2.64 2.61 2.52 2.34 2.47 2.77 2.68
0.52 0.41 0.41 0.43 0.53 0.49 0.35 0.48 0.46 0.39 0.41 0.37 0.34 0.33 0.33 0.31 0.32 0.36 0.36 0.39 0.44 0.48 0.53 0.67 0.83 1.05 1.28 1.51 1.85 2.24 2.51 2.72 2.85 2.68 2.55 2.57 2.59 2.62 2.74 2.88 2.98 2.84 2.72 2.66 2.76 2.66 2.60 2.53 2.52
0.41 0.44 0.44 0.45 0.52 0.56 0.28 0.40 0.52 0.37 0.33 0.34 0.30 0.28 0.29 0.32 0.38 0.42 0.52 0.57 0.58 0.54 0.59 0.68 0.80 0.97 1.12 1.24 1.44 1.66 2.01 2.24 2.57 2.57 2.50 2.62 2.59 2.51 2.44 2.60 2.84 2.78 2.75 2.76 2.84 2.90 2.83 2.81 2.80
0.40 0.62 0.81 0.81 0.77 0.52 0.22 0.37 0.51 0.37 0.30 0.31 0.32 0.29 0.30 0.34 0.40 0.49 0.64 0.71 0.73 0.63 0.59 0.63 0.80 0.88 0.95 1.03 1.11 1.25 1.50 1.66 2.03 2.35 2.32 2.24 2.28 2.33 2.39 2.43 2.43 2.44 2.52 2.66 2.89 2.87 2.76 2.74 2.84
0.34 0.54 0.85 0.96 0.84 0.54 0.37 0.54 0.58 0.42 0.34 0.31 0.30 0.33 0.37 0.42 0.48 0.66 0.83 0.89 0.88 0.76 0.68 0.69 0.81 0.88 0.90 0.95 0.96 1.04 1.16 1.26 1.44 1.66 1.77 1.80 1.84 2.06 2.19 2.29 2.25 2.27 2.34 2.43 2.55 2.59 2.61 2.57 2.56
0.30 0.36 0.42 0.61 0.58 0.60 0.58 0.66 0.59 0.40 0.38 0.37 0.40 0.45 0.56 0.64 0.69 0.82 0.98 1.06 0.97 0.85 0.75 0.77 0.85 0.97 0.96 0.99 1.00 1.08 1.10 1.10 1.20 1.24 1.38 1.56 1.60 1.65 1.78 1.89 1.97 2.09 2.15 2.23 2.39 2.46 2.44 2.47 2.46
0.21 0.28 0.44 0.65 0.83 0.85 0.69 0.70 0.68 0.56 0.53 0.50 0.54 0.60 0.71 0.82 0.89 0.98 1.13 1.17 1.02 0.88 0.79 0.79 0.86 0.97 1.14 1.26 1.22 1.18 1.23 1.29 1.49 1.51 1.36 1.34 1.50 1.55 1.58 1.64 1.71 1.85 1.98 2.07 2.17 2.28 2.38 2.39 2.39
0.26 0.36 0.50 0.68 0.70 0.97 1.08 1.00 0.79 0.71 0.70 0.73 0.76 0.80 0.87 0.99 1.00 0.99 1.09 1.15 1.05 0.87 0.79 0.77 0.80 0.89 1.03 1.07 1.12 1.10 1.16 1.27 1.53 1.73 1.67 1.49 1.47 1.49 1.45 1.40 1.48 1.62 1.73 1.84 1.97 2.04 2.06 2.09 2.22
0.35 0.46 0.67 1.02 0.97 0.89 1.09 1.08 0.78 0.69 0.73 0.74 0.74 0.74 0.79 0.90 0.90 0.94 0.98 0.95 0.87 0.74 0.67 0.65 0.67 0.77 0.91 0.91 0.95 1.01 1.03 1.12 1.24 1.35 1.36 1.29 1.20 1.17 1.23 1.28 1.28 1.36 1.53 1.65 1.69 1.71 1.74 1.81 1.93